Montreal, Quebec

3:29 AM EDT on October 18, 2017 (GMT -0400)
Montreal-Pierre Elliott Trudeau Int'l Airport

Weather History for CYUL - November, 2013

Change the Weather History Date:

Sunday, November 24, 2013

  Actual Average Record
Temperature  
Mean Temperature 16 °F -  
Max Temperature 21 °F 30 °F 64 °F (2014)
Min Temperature 12 °F 15 °F 6 °F (1996)
Degree Days  
Heating Degree Days 48    
Moisture  
Dew Point 2 °F    
Average Humidity 49    
Maximum Humidity 63    
Minimum Humidity 27    
Precipitation  
Precipitation 0.00 in 0.11 in - ()
Sea Level Pressure  
Sea Level Pressure 30.07 in    
Wind  
Wind Speed 19 mph ()    
Max Wind Speed 28 mph    
Max Gust Speed 40 mph    
Visibility 15.0 miles    
Events Snow    
Averages and records for this station are not official NWS values.
T = Trace of Precipitation, MM = Missing Value Source: Averaged Metar Reports

Daily Weather History Graph

Daily Weather History Graph

Search for Another Location

Airport or City:

Trip Planner

Search our weather history database for the weather conditions in past years. The results will help you decide how hot, cold, wet, or windy it might be!

Date:

Astronomy

Nov. 24, 2013 Rise Set
Actual Time 7:06 AM EST 4:16 PM EST
Civil Twilight 6:33 AM EST 4:49 PM EST
Nautical Twilight 5:56 AM EST 5:26 PM EST
Astronomical Twilight 5:21 AM EST 6:01 PM EST
Moon 10:49 PM EST (11/24) 11:44 AM EST (11/24)
Length of Visible Light 10h 16m
Length of Day
9h 10m
Waning Gibbous, 61% of the Moon is Illuminated
Nov 24
Waning Gibbous
Nov 25
Last Quarter
Dec 2
New
Dec 9
First Quarter
Dec 17
Full

Hourly Weather History & Observations

Time (EST) Temp. Windchill Dew Point Humidity Pressure Visibility Wind Dir Wind Speed Gust Speed Precip Events Conditions
12:00 AM 21.2 °F 7.3 °F 6.8 °F 54% 29.91 in 15.0 mi WNW 16.1 mph 24.2 mph N/A   Overcast
1:00 AM 20 °F - 6 °F 39% 29.91 in 15 mi WNW 18.4 mph - -   Partly Cloudy
1:00 AM 19.4 °F 3.6 °F 5.0 °F 54% 29.91 in 15.0 mi WNW 19.6 mph 28.8 mph N/A   Overcast
2:00 AM 19.4 °F 2.8 °F 8.6 °F 63% 29.93 in 15.0 mi WNW 21.9 mph 28.8 mph N/A Snow Light Snow Showers
2:38 AM 17.6 °F 0.5 °F 6.8 °F 63% 29.94 in 15.0 mi WNW 21.9 mph - N/A   Overcast
3:00 AM 17.6 °F 1.7 °F 6.8 °F 63% 29.95 in 15.0 mi West 18.4 mph - N/A   Overcast
4:00 AM 17.6 °F -1.0 °F 5.0 °F 58% 29.95 in 15.0 mi WNW 26.5 mph - N/A   Overcast
5:00 AM 17.6 °F 1.3 °F 3.2 °F 53% 29.97 in 15.0 mi WNW 19.6 mph 31.1 mph N/A   Overcast
6:00 AM 15.8 °F -1.1 °F 3.2 °F 58% 29.99 in 15.0 mi West 19.6 mph - N/A   Overcast
7:00 AM 17 °F - 4 °F 41% 30.02 in 15 mi West 19.6 mph - -   Partly Cloudy
7:00 AM 15.8 °F -1.5 °F 3.2 °F 58% 30.01 in 15.0 mi West 20.7 mph 29.9 mph N/A   Overcast
8:00 AM 17.6 °F 1.3 °F 5.0 °F 58% 30.04 in 15.0 mi West 19.6 mph - N/A   Mostly Cloudy
9:00 AM 17.6 °F 0.5 °F 3.2 °F 53% 30.06 in 15.0 mi West 21.9 mph 31.1 mph N/A   Mostly Cloudy
10:00 AM 17.6 °F 1.7 °F 3.2 °F 53% 30.09 in 15.0 mi West 18.4 mph 27.6 mph N/A   Mostly Cloudy
11:00 AM 19.4 °F 5.0 °F 5.0 °F 54% 30.08 in 15.0 mi West 16.1 mph 32.2 mph N/A   Mostly Cloudy
12:00 PM 21.2 °F 3.9 °F 3.2 °F 46% 30.08 in 15.0 mi West 26.5 mph 35.7 mph N/A   Mostly Cloudy
1:00 PM 22 °F - 2 °F 27% 30.08 in 15 mi West 25.3 mph - -   Scattered Clouds
1:00 PM 21.2 °F 5.6 °F 1.4 °F 42% 30.07 in 15.0 mi West 20.7 mph 36.8 mph N/A   Mostly Cloudy
2:00 PM 21.2 °F 5.6 °F -0.4 °F 39% 30.08 in 30.0 mi WNW 20.7 mph 32.2 mph N/A   Mostly Cloudy
3:00 PM 21.2 °F 4.2 °F -4.0 °F 33% 30.11 in 30.0 mi West 25.3 mph 36.8 mph N/A   Mostly Cloudy
4:00 PM 19.4 °F 2.1 °F -2.2 °F 39% 30.14 in 30.0 mi West 24.2 mph 39.1 mph N/A   Mostly Cloudy
5:00 PM 17.6 °F 0.1 °F -4.0 °F 38% 30.17 in 15.0 mi WNW 23.0 mph 40.3 mph N/A   Scattered Clouds
6:00 PM 15.8 °F -2.7 °F -2.2 °F 45% 30.18 in 15.0 mi West 24.2 mph 31.1 mph N/A   Partly Cloudy
7:00 PM 16 °F - -2 °F 29% 30.21 in 15 mi West 23.0 mph - -   Scattered Clouds
7:00 PM 15.8 °F -1.5 °F -2.2 °F 45% 30.21 in 15.0 mi West 20.7 mph 31.1 mph N/A   Partly Cloudy
8:00 PM 14.0 °F -4.7 °F -0.4 °F 53% 30.22 in 15.0 mi West 23.0 mph 32.2 mph N/A   Partly Cloudy
9:00 PM 14.0 °F -6.2 °F -2.2 °F 49% 30.23 in 15.0 mi West 27.6 mph - N/A   Partly Cloudy
10:00 PM 12.2 °F -7.1 °F -0.4 °F 57% 30.25 in 15.0 mi West 23.0 mph 32.2 mph N/A   Partly Cloudy
11:00 PM 12.2 °F -6.3 °F 1.4 °F 62% 30.27 in 15.0 mi West 20.7 mph 28.8 mph N/A   Partly Cloudy